Location: Invercargill
(46.4000°S, 168.3500°E)
Time: 03:43:44
(UTC+13:00)

Cosmos 2322 - Pass Details

Date: 06 October 2021
Orbit: 840 x 855 km, 71.0° (Epoch: 24 October)

Event Time Altitude Azimuth Distance (km) Brightness Sun altitude
Rises 21:37:50 0° 203° (SSW) 3,437 7.7 -16.6°
Reaches altitude 10° 21:40:26 10° 196° (SSW) 2,497 6.8 -17.0°
Maximum altitude 21:45:52 42° 125° (SE) 1,206 4.3 -17.8°
Enters shadow 21:48:04 30° 78° (ENE) 1,495 4.4 -18.1°
